Temp
8 8 8 8 8 8 8 8 8 8 8 8 7 7 7 7 7 6 6 5 5 4 5 4 4 4 4 4 4 3 3 3 2 3 3 3 3 4 3 4 4 4 4
8 8 8 8 8 8 8 8 8 8 8 8 7 7 7 7 7 6 6 5 5 5 5 4 4 4 4 4 4 4 3 2 3 3 3 3 3 3 3 3 4 4 4
7 8 8 8 8 8 7 8 8 8 8 8 8 7 7 7 7 6 6 6 5 5 5 4 4 4 4 4 4 3 3 3 2 3 2 3 3 3 3 3 3 4 4
7 7 7 7 6 7 7 7 7 7 7 7 7 7 7 7 7 6 6 6 6 5 5 4 4 4 4 4 4 4 3 3 1 2 2 3 3 3 3 3 3 3 4
6 7 6 6 5 4 7 7 7 7 7 7 7 7 7 7 7 7 6 6 6 6 5 5 4 4 4 4 4 4 3 3 2 2 2 2 3 3 3 3 3 3 4
6 6 7 6 6 5 6 6 7 7 7 6 6 6 6 6 6 7 7 6 6 6 6 5 4 4 4 4 4 4 3 3 3 2 1 2 2 2 3 3 3 4 3
6 6 6 6 7 6 6 6 5 6 6 6 6 5 6 6 6 6 6 6 6 6 6 5 5 5 4 3 3 3 3 3 3 2 2 2 2 2 3 3 4 4 3
6 6 6 6 6 6 6 6 5 5 5 5 3 3 4 5 6 6 6 6 6 6 6 5 5 5 4 4 3 3 3 3 3 2 2 2 2 2 2 3 4 4 4
6 6 6 6 7 6 7 6 5 5 5 4 4 3 2 2 4 5 5 5 5 5 5 5 5 5 5 4 4 3 3 3 2 2 2 1 2 2 2 3 4 4 4
6 6 6 6 7 7 7 6 5 5 4 4 4 3 2 1 2 3 4 5 5 5 5 5 5 5 5 4 4 3 2 2 2 2 3 1 2 2 2 3 4 3 4
6 6 6 6 6 6 6 6 6 5 4 4 4 2 2 1 3 2 3 4 4 5 5 5 5 5 5 4 4 3 3 3 2 2 2 2 2 2 2 3 3 3 3
6 6 6 6 6 5 5 5 5 4 4 3 3 3 2 3 4 4 3 4 4 4 4 4 4 5 5 5 3 3 2 2 2 2 2 2 1 2 2 2 3 3 3
5 5 5 6 5 5 4 4 4 4 3 3 2 2 2 2 4 3 2 3 3 4 4 4 4 4 5 5 3 2 2 2 2 2 2 2 2 1 2 2 3 3 3
5 5 5 5 5 5 5 4 3 2 2 2 2 1 1 2 2 2 2 2 3 3 3 4 4 4 4 4 2 2 2 2 1 1 2 2 0 0 1 2 2 3 3
5 4 4 4 4 5 4 4 3 2 2 2 1 1 2 2 2 1 2 2 2 3 4 4 3 4 4 4 2 1 1 2 0 1 1 0 0 0 0 2 2 2 3
4 4 3 4 4 4 4 3 2 1 1 1 0 -0 3 2 2 2 2 1 2 2 3 3 3 3 4 3 2 2 1 1 1 1 0 -0 0 -0 0 1 2 2 2
3 3 3 3 3 3 3 2 2 1 1 1 1 1 2 2 2 2 2 1 2 2 3 2 2 2 3 3 2 2 2 2 1 0 0 0 0 0 1 1 2 2 1
3 3 2 2 2 2 2 2 1 1 1 1 2 2 2 2 2 1 1 1 2 2 1 1 2 2 2 2 1 1 1 1 0 1 1 1 1 0 1 1 1 1 1
2 2 1 1 1 1 1 1 1 0 0 1 2 3 2 2 2 2 1 1 1 1 1 0 0 1 2 1 1 1 2 2 1 1 1 1 1 1 1 1 1 1 0
1 1 1 -0 1 0 0 1 1 -0 0 1 2 2 2 2 1 1 0 -0 0 0 1 1 0 1 2 1 1 1 1 1 1 1 1 1 1 1 1 1 0 1 0
-0 0 -1 -2 -1 -1 0 -0 -0 -1 0 1 1 1 1 0 0 -0 0 1 1 1 1 0 0 1 1 1 1 1 1 1 1 1 1 1 1 1 1 1 0 0 0
-2 -2 -3 -2 -2 -1 -1 -0 -0 -1 -0 0 0 1 2 1 1 1 -0 0 1 1 0 0 0 1 2 1 1 1 1 1 1 1 1 1 0 -0 -0 -0 0 0 0
-4 -4 -3 -2 -2 -2 -1 -0 -0 -1 -0 -0 0 0 1 0 0 0 0 0 1 -0 0 -0 0 1 1 1 1 1 0 1 0 1 0 1 0 -0 0 0 -0 -0 0
-5 -4 -4 -4 -2 -2 -2 -1 -1 -1 -1 -0 0 1 1 0 0 0 1 0 0 0 -0 1 0 0 0 0 0 0 1 0 1 -0 0 -0 -0 0 0 0 0 -0 -0
-6 -5 -5 -4 -4 -4 -3 -2 -2 -1 -1 -1 -1 0 0 0 -0 -0 -0 0 -0 0 -0 -0 0 1 0 -0 -0 -0 -0 -0 0 0 -0 -0 0 0 0 -0 -0 -0 -1
-6 -6 -6 -5 -5 -5 -4 -4 -3 -3 -2 -1 -1 -1 -1 -0 -0 0 -1 -0 0 1 0 0 0 -0 -0 -0 -0 0 -0 0 0 -0 -0 -0 -0 -0 -1 -0 -0 -0 -1
Height
3123 3126 3127 3128 3129 3130 3131 3132 3134 3135 3136 3136 3136 3136 3136 3137 3137 3136 3137 3138 3138 3138 3139 3139 3141 3142 3143 3143 3144 3143 3144 3144 3148 3152 3155 3158 3159 3160 3162 3164 3165 3166 3166
3117 3118 3119 3121 3122 3123 3124 3126 3128 3129 3131 3131 3132 3132 3133 3132 3133 3134 3133 3134 3134 3134 3136 3136 3135 3136 3138 3138 3139 3138 3138 3140 3138 3147 3150 3153 3155 3156 3158 3160 3161 3163 3164
3109 3109 3110 3112 3114 3115 3117 3118 3121 3122 3124 3125 3127 3127 3127 3127 3127 3128 3129 3130 3130 3130 3131 3131 3132 3132 3132 3132 3134 3134 3132 3133 3136 3142 3145 3148 3151 3153 3155 3156 3158 3160 3161
3101 3101 3100 3102 3105 3110 3110 3111 3113 3115 3117 3119 3120 3121 3122 3121 3122 3122 3124 3125 3126 3126 3126 3127 3127 3127 3126 3127 3127 3128 3126 3125 3113 3135 3141 3144 3146 3148 3151 3152 3154 3156 3158
3092 3092 3093 3094 3097 3090 3101 3103 3104 3107 3109 3112 3113 3114 3114 3114 3115 3116 3117 3119 3119 3120 3120 3121 3121 3120 3120 3121 3122 3121 3121 3120 3117 3126 3134 3138 3140 3143 3146 3147 3150 3152 3154
3083 3084 3085 3086 3087 3089 3090 3092 3094 3098 3100 3102 3104 3105 3105 3106 3107 3109 3110 3112 3113 3113 3114 3115 3114 3114 3114 3114 3115 3116 3117 3118 3116 3121 3127 3132 3135 3138 3141 3143 3145 3147 3149
3074 3075 3076 3077 3078 3079 3081 3084 3086 3087 3090 3092 3092 3093 3093 3094 3097 3101 3103 3106 3108 3106 3108 3108 3108 3108 3107 3108 3109 3109 3111 3113 3116 3117 3120 3125 3129 3132 3135 3137 3139 3142 3144
3064 3065 3066 3067 3069 3070 3072 3072 3076 3079 3080 3081 3079 3081 3080 3084 3086 3091 3094 3097 3100 3101 3101 3101 3101 3101 3101 3101 3102 3104 3105 3107 3110 3111 3115 3118 3122 3126 3129 3131 3134 3137 3140
3053 3054 3055 3056 3057 3059 3060 3062 3064 3068 3071 3070 3071 3073 3037 3063 3078 3083 3086 3090 3092 3093 3093 3094 3094 3095 3094 3094 3095 3096 3097 3099 3101 3104 3106 3110 3115 3120 3123 3126 3129 3131 3134
3044 3044 3043 3044 3045 3046 3047 3050 3052 3055 3059 3058 3060 3064 3045 3039 3066 3075 3077 3081 3084 3085 3086 3087 3087 3087 3086 3087 3087 3089 3089 3090 3092 3095 3097 3103 3108 3113 3117 3120 3124 3125 3128
3033 3033 3033 3032 3032 3033 3034 3037 3039 3042 3045 3047 3048 3053 3056 3053 3059 3068 3069 3072 3074 3077 3078 3079 3080 3080 3080 3078 3080 3082 3082 3082 3083 3087 3091 3094 3099 3105 3109 3114 3117 3119 3123
3024 3022 3021 3020 3020 3019 3019 3024 3026 3028 3032 3035 3038 3040 3044 3047 3048 3052 3060 3065 3064 3067 3070 3071 3072 3072 3072 3071 3072 3074 3075 3073 3074 3078 3081 3082 3089 3097 3102 3107 3110 3113 3115
3014 3013 3010 3009 3009 3009 3009 3011 3010 3015 3018 3021 3023 3029 3034 3037 3039 3045 3049 3053 3053 3058 3061 3062 3065 3064 3064 3063 3064 3065 3065 3063 3065 3068 3072 3075 3082 3089 3095 3099 3103 3105 3109
3003 3002 3001 3000 3000 3000 2999 2998 2998 3001 3006 3008 3010 3008 3017 3024 3028 3031 3038 3041 3043 3048 3051 3054 3057 3057 3056 3055 3057 3058 3058 3057 3059 3061 3066 3068 3075 3081 3087 3092 3095 3099 3102
2993 2992 2992 2990 2989 2989 2989 2988 2988 2990 2993 2996 3000 3003 3006 3011 3016 3020 3026 3028 3035 3037 3040 3045 3048 3049 3048 3048 3050 3052 3053 3052 3052 3056 3060 3063 3068 3073 3079 3085 3089 3093 3096
2984 2983 2982 2980 2980 2980 2979 2979 2979 2981 2984 2984 2984 2989 2998 3002 3006 3010 3014 3017 3023 3028 3030 3037 3040 3040 3039 3040 3042 3045 3047 3049 3048 3050 3053 3056 3061 3067 3072 3077 3082 3086 3089
2973 2972 2972 2972 2971 2970 2970 2969 2969 2972 2974 2975 2978 2984 2989 2992 2997 3001 3006 3010 3014 3018 3019 3026 3028 3030 3030 3032 3034 3037 3040 3043 3044 3047 3050 3054 3057 3062 3066 3069 3074 3079 3082
2964 2962 2962 2962 2963 2961 2962 2960 2960 2963 2965 2968 2971 2976 2978 2980 2986 2991 2994 3002 3005 3008 3010 3015 3018 3022 3023 3024 3026 3029 3033 3036 3039 3042 3047 3049 3051 3055 3059 3063 3067 3071 3074
2955 2952 2952 2953 2953 2953 2952 2951 2951 2954 2955 2960 2962 2963 2968 2972 2976 2980 2987 2992 2995 2998 3000 3004 3009 3012 3015 3015 3017 3021 3025 3028 3031 3035 3038 3042 3045 3048 3051 3055 3059 3061 3065
2947 2945 2944 2943 2943 2943 2943 2944 2944 2945 2947 2949 2951 2953 2957 2961 2967 2974 2978 2978 2981 2983 2990 2995 3000 3003 3006 3008 3010 3014 3018 3021 3024 3027 3030 3034 3038 3042 3046 3049 3051 3052 3055
2940 2939 2938 2935 2934 2933 2934 2936 2933 2934 2933 2933 2937 2945 2948 2944 2948 2961 2966 2968 2970 2974 2980 2983 2988 2993 2996 2999 3002 3007 3011 3015 3016 3019 3023 3026 3029 3033 3036 3038 3040 3042 3046
2935 2935 2933 2929 2928 2926 2925 2926 2925 2923 2924 2922 2933 2938 2927 2942 2950 2955 2957 2959 2959 2964 2969 2973 2979 2983 2987 2992 2996 2998 3002 3004 3007 3011 3014 3016 3019 3023 3026 3028 3032 3034 3036
2936 2932 2928 2923 2921 2920 2919 2919 2918 2919 2920 2921 2921 2929 2935 2939 2944 2948 2950 2951 2952 2956 2961 2968 2971 2975 2979 2983 2987 2990 2993 2995 2997 3002 3005 3005 3009 3011 3013 3017 3020 3022 3025
2937 2932 2925 2920 2915 2913 2912 2912 2911 2912 2913 2915 2919 2920 2927 2933 2936 2940 2941 2940 2947 2951 2955 2959 2963 2966 2970 2973 2977 2981 2984 2985 2988 2990 2992 2992 2996 2998 3000 3004 3008 3010 3014
2941 2935 2928 2923 2917 2912 2908 2906 2906 2906 2907 2907 2910 2913 2919 2924 2927 2931 2932 2935 2940 2943 2948 2952 2955 2958 2962 2964 2966 2969 2970 2973 2975 2977 2979 2981 2983 2987 2990 2992 2996 3000 3004
2944 2939 2934 2928 2922 2917 2911 2907 2905 2903 2904 2904 2906 2907 2907 2913 2918 2924 2927 2929 2930 2938 2940 2944 2947 2950 2953 2955 2957 2959 2961 2962 2964 2965 2968 2970 2973 2976 2978 2981 2985 2990 2994
Wind_Speed
35 34 34 32 30 27 27 25 24 24 22 21 19 18 18 20 19 19 19 18 19 18 19 17 16 20 19 20 21 23 31 29 32 26 25 23 21 19 17 16 13 13 13
37 37 37 36 35 32 30 29 27 26 25 23 23 22 20 20 22 21 20 19 19 19 19 20 15 20 21 21 22 21 29 27 36 29 28 25 23 21 19 17 14 14 14
39 41 41 41 38 37 33 33 32 31 29 29 26 25 25 22 22 22 22 20 20 20 20 19 20 20 20 21 21 25 31 37 43 34 29 27 24 23 21 19 17 16 16
41 40 42 41 38 38 37 35 35 36 33 32 30 27 28 27 24 23 23 22 22 22 21 21 22 21 22 21 20 25 26 32 36 34 30 28 25 24 24 23 20 18 18
40 41 41 41 39 47 43 40 39 39 38 35 33 31 31 30 29 27 26 24 22 24 22 23 22 22 23 22 19 21 20 27 37 35 31 29 27 26 25 25 22 21 20
40 41 44 42 40 41 42 44 43 42 42 40 38 36 35 33 31 30 29 28 24 22 23 24 25 24 23 24 21 21 22 21 14 36 34 31 28 27 25 25 24 23 23
42 43 44 45 46 43 44 44 45 45 46 45 44 42 42 40 37 33 31 30 29 24 22 22 23 23 23 24 21 22 23 24 26 35 42 36 30 29 27 26 27 25 24
45 47 48 47 47 48 48 48 47 46 48 47 48 47 50 46 42 35 33 31 29 28 25 22 23 23 23 25 25 23 24 24 30 27 32 37 34 31 30 26 26 26 25
44 47 47 48 50 52 54 53 52 48 46 49 50 48 62 46 40 34 32 31 29 30 28 24 23 22 24 27 27 26 26 33 35 35 42 43 37 33 31 27 27 27 27
43 46 49 50 52 53 56 56 52 52 50 52 54 56 28 30 33 35 32 31 33 33 29 25 24 22 23 26 26 25 30 30 33 36 44 43 39 34 33 30 29 28 27
40 42 45 48 51 54 56 55 55 55 52 54 55 47 50 42 47 40 31 33 35 34 31 28 26 23 24 25 27 25 22 26 31 39 52 51 42 39 35 31 30 29 28
35 40 43 46 50 54 57 54 53 52 52 52 55 59 49 41 38 39 46 38 35 35 33 32 28 26 23 26 27 29 31 27 37 42 47 53 44 42 37 33 31 30 29
29 32 39 42 45 46 48 51 56 53 53 55 55 53 47 42 40 50 45 39 34 33 34 34 31 28 24 26 27 26 27 26 28 39 37 51 44 42 36 34 33 31 31
28 29 31 38 39 40 38 43 50 53 52 55 52 66 46 41 42 43 44 38 35 37 34 31 31 31 26 26 25 28 27 17 31 33 34 38 41 37 33 32 31 32 32
28 28 30 32 36 36 37 35 38 43 45 49 54 33 35 41 45 45 43 39 39 42 37 36 33 31 27 25 25 22 22 19 26 40 43 41 43 33 30 26 26 30 32
31 30 29 28 31 33 32 35 37 41 42 44 50 42 39 41 43 42 43 46 34 38 36 36 33 29 26 26 27 25 21 18 18 27 30 30 32 30 30 29 27 29 30
32 32 30 29 29 29 30 35 39 38 40 35 31 38 39 39 41 47 42 46 37 38 35 39 33 30 27 27 28 25 23 28 22 18 20 25 25 34 26 30 33 29 31
32 31 32 31 30 28 30 29 33 40 42 36 32 34 39 38 37 35 48 50 46 32 30 34 30 29 27 25 26 25 29 27 31 22 27 33 27 27 29 30 31 31 34
32 29 32 34 34 33 34 33 36 35 38 35 36 35 37 40 39 41 43 46 41 39 37 34 30 26 27 27 29 29 33 32 27 26 28 29 29 31 29 32 33 39 37
28 27 31 33 32 37 36 34 37 40 41 33 34 34 39 40 40 46 41 45 46 39 39 39 33 31 28 27 27 31 33 32 31 31 30 30 35 31 33 40 40 38 37
24 25 24 29 26 29 32 35 36 37 38 40 30 34 34 42 31 29 28 32 39 39 45 39 42 35 30 29 31 31 31 32 34 36 32 33 35 35 35 35 41 38 39
24 24 21 22 22 26 30 22 31 22 23 26 30 33 23 27 24 27 30 35 29 43 48 46 35 35 30 29 29 31 34 36 37 34 32 34 36 41 43 33 36 39 43
18 17 18 20 22 24 26 17 24 28 27 29 26 34 38 33 31 29 33 28 19 23 26 30 31 34 30 30 30 30 33 36 36 35 35 41 40 39 38 43 37 47 47
27 27 23 16 13 20 22 20 24 21 26 22 34 34 34 38 36 34 26 30 30 21 23 30 29 31 27 28 31 31 30 35 34 40 41 42 41 40 42 40 41 43 48
25 27 28 30 25 17 10 10 15 17 18 34 39 37 38 39 35 32 29 27 31 28 28 28 28 28 30 30 30 34 37 34 41 39 39 42 44 40 47 41 44 54 51
26 26 25 25 25 27 27 21 11 7 13 19 30 33 46 30 28 28 29 25 29 33 30 34 36 33 33 31 33 32 31 31 39 40 38 38 40 37 43 45 44 44 44
Wind_Direction
244 246 246 247 246 247 250 253 254 251 257 262 264 264 262 266 261 257 259 256 258 259 261 249 258 265 270 272 267 256 242 243 218 219 221 225 224 227 226 234 236 235 227
244 246 248 248 248 247 246 248 252 252 252 255 261 265 265 262 266 266 262 256 256 253 257 256 261 263 266 268 273 265 249 247 214 217 219 222 225 223 222 230 234 235 232
248 248 248 248 248 249 247 248 248 250 251 254 259 262 266 263 260 263 264 263 259 259 259 259 261 261 268 266 273 273 250 238 226 216 217 219 225 230 225 227 234 233 232
246 248 250 248 252 255 251 248 249 251 249 251 252 255 260 263 263 264 267 269 267 264 259 260 261 265 268 269 276 279 256 243 232 210 215 219 223 228 230 227 232 232 232
245 247 249 252 255 240 252 252 250 250 251 250 250 250 254 254 259 263 268 270 272 271 267 265 263 263 269 273 268 274 250 260 203 205 214 220 222 227 231 229 229 231 232
249 249 251 252 254 254 253 252 253 252 251 249 249 248 249 249 251 256 263 269 271 274 272 263 259 263 267 269 267 259 251 244 222 214 210 219 222 230 232 232 228 229 231
252 253 253 255 255 254 256 255 256 255 255 252 248 245 245 244 244 248 253 259 268 272 274 264 260 262 263 262 258 256 254 248 241 238 222 217 220 228 234 236 230 226 229
253 253 253 253 254 257 256 255 254 255 256 254 252 250 244 239 241 242 247 251 258 266 272 264 260 266 264 260 258 255 253 254 241 237 224 216 220 228 235 236 231 228 229
257 258 257 256 255 255 255 254 255 254 255 257 252 255 233 228 237 239 247 251 252 259 265 268 266 268 268 264 260 253 258 249 242 237 226 217 220 227 232 235 231 230 230
256 258 259 259 260 258 255 257 256 252 253 256 257 257 264 200 232 246 246 251 250 252 257 265 268 272 270 267 266 262 257 254 240 226 220 215 220 225 231 232 230 232 232
262 261 261 262 263 262 261 258 255 256 254 253 257 256 259 278 257 250 253 248 251 252 255 261 268 275 277 265 260 253 265 255 229 224 221 220 218 223 226 230 229 231 234
261 264 263 262 263 263 265 264 260 253 255 254 253 257 259 257 256 254 242 252 247 249 251 256 262 271 274 271 262 259 259 265 236 224 233 227 214 222 224 228 232 230 232
265 263 265 265 265 264 264 264 262 256 253 256 254 256 254 248 237 240 247 246 243 247 249 254 260 268 273 270 259 267 269 268 236 227 229 214 211 216 221 228 234 230 232
270 267 264 264 264 265 267 264 259 257 253 255 260 256 237 239 239 247 236 234 236 239 244 251 257 263 269 266 255 258 269 265 228 214 205 197 211 213 220 227 231 232 233
277 272 269 267 265 267 264 259 261 252 255 258 260 244 230 237 241 240 231 231 237 248 250 252 254 259 262 259 253 249 260 272 234 214 212 219 209 210 221 229 233 236 235
282 278 273 271 267 262 261 257 261 255 261 256 257 234 230 239 239 229 232 228 237 249 243 247 248 253 256 251 244 243 250 247 230 221 228 219 210 217 227 236 236 243 238
283 279 274 271 267 266 266 257 260 245 247 245 231 238 239 239 234 230 237 233 242 248 252 233 236 247 250 247 240 241 241 235 228 217 218 215 222 225 238 238 237 236 242
286 280 272 267 267 262 265 262 251 244 244 241 239 239 239 242 241 242 231 234 240 239 231 231 229 243 245 239 240 235 239 237 245 227 228 235 236 234 240 238 234 244 250
289 285 273 265 264 261 261 267 256 245 233 236 245 243 234 235 232 234 227 233 233 232 228 238 230 242 239 235 234 230 233 237 235 227 235 238 235 235 240 242 254 252 251
291 293 287 271 269 258 254 261 259 250 244 236 239 242 238 232 233 231 230 247 228 219 229 238 245 245 239 232 237 233 239 234 235 240 242 244 232 235 237 243 244 241 249
298 295 294 281 280 268 255 259 261 260 249 242 234 240 237 231 231 220 238 257 249 235 231 233 255 236 229 230 234 236 237 237 242 242 240 237 235 237 251 246 244 250 250
318 309 299 285 277 266 270 274 256 252 245 248 225 230 244 231 225 235 251 265 235 223 228 242 230 233 233 230 235 240 242 241 239 236 243 237 229 245 246 254 252 256 252
5 342 310 294 281 285 268 254 261 253 246 236 234 221 231 232 225 236 246 254 226 212 222 229 229 225 233 238 239 243 242 242 243 248 244 240 235 250 250 251 249 256 257
36 33 24 6 319 283 265 265 239 247 245 248 222 228 221 222 229 240 241 230 229 241 218 220 230 237 240 246 248 248 249 244 246 245 242 249 251 254 248 256 251 257 250
29 33 35 36 32 22 1 301 263 255 264 252 227 234 219 222 235 229 227 229 224 235 242 234 233 233 244 245 244 246 245 248 253 249 247 251 256 252 248 251 251 248 250
27 31 28 32 38 40 38 32 9 306 263 221 220 218 225 222 218 222 230 232 224 225 242 246 245 241 238 242 244 250 250 252 253 245 250 250 248 243 247 244 248 249 245